Regional Weather Roundup
Issued by NWS

Current Version | Previous Version | Text Only | Print | Product List | Glossary On
Versions: 1 2 3 4 5 6 7 8 9 10 11 12 13 14 15 16 17 18 19 20 21 22 23 24 25 26 27 28 29 30 31 32 33 34 35 36 37 38 39 40 41 42 43 44 45 46 47 48 49 50
000
ASUS43 KMKX 042211
RWRWI

WISCONSIN REGIONAL WEATHER ROUNDUP
NATIONAL WEATHER SERVICE MILWAUKEE/SULLIVAN WI
500 PM CDT MON MAY 04 2015

NOTE: "FAIR" INDICATES FEW OR NO CLOUDS BELOW 12,000 FEET WITH NO
SIGNIFICANT WEATHER AND/OR OBSTRUCTIONS TO VISIBILITY.

WIZ001-002-006>008-014>016-023>028-042300-
NORTHWEST WISCONSIN

CITY           SKY/WX    TMP DP  RH WIND       PRES   REMARKS
SUPERIOR ARPT  PTSUNNY   67  22  18 NE6       30.17F
ASHLAND        PTSUNNY   65  30  27 NE9       30.20R
HAYWARD        MOSUNNY   67  16  14 N8        30.18S
SIREN          SUNNY     68  22  17 NE3       30.17F
CUMBERLAND     SUNNY     64  25  22 N7        30.17S
RICE LAKE      SUNNY     68  22  17 E3        30.18S
CHETEK         SUNNY     68  29  23 NW6       30.17S
LADYSMITH      SUNNY     68  26  20 W5        30.17F
EAU CLAIRE     PTSUNNY   71  28  20 N5        30.15S
MENOMONIE      MOSUNNY   69  28  21 NE5       30.16F
NEW RICHMOND   MOSUNNY   69  21  16 N9        30.16F
OSCEOLA        MOSUNNY   68  33  27 NE3       30.19S
$$

WIZ003>005-009-010-017-018-042300-
NORTH CENTRAL WISCONSIN

CITY           SKY/WX    TMP DP  RH WIND       PRES   REMARKS
MANITOWISH WTR MOSUNNY   62  20  19 N9        30.19S
ARBOR VITAE    MOSUNNY   64  21  19 NW8       30.18S
WOODRUFF       MOSUNNY   64  21  19 NW8       30.18S
RHINELANDER    SUNNY     65  25  22 CALM      30.17S
EAGLE RIVER    MOSUNNY   65  20  17 NW8       30.17S
LAND O LAKES   MOSUNNY   65  24  21 SW5       30.19S
PHILLIPS       SUNNY     65  26  23 NE6       30.16S
TOMAHAWK       SUNNY     66  25  21 N3        30.17S
MEDFORD        MOSUNNY   65  30  26 NW3       30.16S
MERRILL        SUNNY     67  29  23 NE5       30.16R
$$

WIZ029-030-035-036-043>047-042300-
CENTRAL WISCONSIN

CITY           SKY/WX    TMP DP  RH WIND       PRES   REMARKS
WAUSAU         MOSUNNY   68  26  20 N8        30.14S
MOSINEE        SUNNY     66  32  28 N8        30.16S
MARSHFIELD     PTSUNNY   69  33  26 CALM      30.15S
STEVENS POINT  PTSUNNY   68  31  25 N5        30.15S
WAUPACA        PTSUNNY   74  31  20 CALM      30.13S HAZE
WAUTOMA        PTSUNNY   73  36  26 VRB6      30.14R
WISC RAPIDS    PTSUNNY   71  31  22 N3        30.16R
CAMP DOUGLAS   PTSUNNY   75  34  22 VRB7      30.13S
$$

WIZ011>013-019>022-031-037>040-048>050-042300-
NORTHEAST WISCONSIN

CITY           SKY/WX    TMP DP  RH WIND       PRES   REMARKS
ANTIGO         SUNNY     65  34  31 N3        30.17R
SHAWANO        MOSUNNY   74  32  21 SW6       30.13S
OCONTO         MOSUNNY   64  43  47 E10G18    30.15S
STURGEON BAY   MOSUNNY   63  37  39 E9        30.20R
GREEN BAY      MOSUNNY   68  41  37 SE18G24   30.14R
MANITOWOC      MOSUNNY   60  41  49 E13       30.17S
APPLETON       PTSUNNY   72  36  26 CALM      30.14S
CLINTONVILLE   MOSUNNY   72  32  23 N6        30.13R
OSHKOSH        PTSUNNY   71  41  33 SE6       30.14S
$$

WIZ032>034-041-042-053>061-042300-
SOUTHWEST WISCONSIN

CITY           SKY/WX    TMP DP  RH WIND       PRES   REMARKS
LA CROSSE      PTSUNNY   74  38  27 VRB7      30.12F
SPARTA         PTSUNNY   73  31  21 NW8       30.13F
VIROQUA        PTSUNNY   69  39  33 N6        30.14S
BOSCOBEL       PTSUNNY   76  47  35 E8        30.11S
PRAIRIE DU CHI CLOUDY    73  45  37 CALM      30.10S
PLATTEVILLE    CLOUDY    72  55  54 NE8       30.11F
$$

WIZ056-057-062-063-064-067-068-042300-
SOUTH CENTRAL WISCONSIN

CITY           SKY/WX    TMP DP  RH WIND       PRES   REMARKS
REEDSBURG      PTSUNNY   71  43  36 CALM      30.12S
BARABOO/DELLS  NOT AVBL
LONE ROCK      CLOUDY    73  54  51 VRB5      30.11S
MINERAL POINT  CLOUDY    72  52  49 E5        30.12F
MADISON        PTSUNNY   71  55  56 E10       30.12S
MIDDLETON      PTSUNNY   74  48  40 E5        30.13S
WATERTOWN      CLOUDY    68  50  52 E8        30.13S
MONROE         CLOUDY    70  55  60 NE5       30.12S
JANESVILLE     PTSUNNY   73  55  53 E8        30.11
$$

WIZ051-052-058>065-066-070>072-042300-
SOUTHEAST WISCONSIN

CITY           SKY/WX    TMP DP  RH WIND       PRES   REMARKS
MILWAUKEE      PTSUNNY   59  40  49 NE12      30.17R
WAUKESHA       MOSUNNY   66  37  34 E12       30.16R
MILWAUKEE/TIMM SUNNY     64  34  32 E12       30.18R
RACINE         PTSUNNY   58  40  51 NE8       30.18S
BURLINGTON     PTSUNNY   65  44  45 E12       30.15R
KENOSHA        PTSUNNY   64  41  42 E13       30.16R
FOND DU LAC    MOSUNNY   71  41  33 NE8       30.14S
SHEBOYGAN      MOSUNNY   59  41  51 NE13      30.17S
WEST BEND      SUNNY     64  34  32 NE12      30.16R
JUNEAU         MOSUNNY   70  51  51 SE9       30.14F
$$

LSZ147-162-042300-
LAKE SUPERIOR

STATION/POSITION TIME  TEMP    WIND        PRES    WAVE
                       AIR SEA DIR/SP/G            HT/PER
                 (UTC) (F)     (DEG/KT/KT) (MB)    (FT/S)
W MID LAKE BUOY  2150   40 36  200/ 10/ 12 1023.0F   0
DEVILS ISLAND    2200   62     180/  9/ 10 1022.3F
PORT WING        2100   58     310/  5/  6 1022.4
SAXON HARBOR     2100   59        CALM     1022.7F
$$

LMZ867-665-643>646-042300-
LAKE MICHIGAN

STATION/POSITION TIME  TEMP    WIND        PRES    WAVE
                       AIR SEA DIR/SP/G            HT/PER
                 (UTC) (F)     (DEG/KT/KT) (MB)    (FT/S)
CHAMBERS ISLAND  2100   59      60/ 10/ 13 1021.7R
NORTHPORT PIER   2100   49     140/  5/  6 1021.7R
SISTER BAY       2132   64     110/ 10/ 12   N/A
KEWAUNEE LAKESHO 2100           80/  5/  9 1021.1R
SHEBOYGAN LAKESH 2200   48      20/  7/  8 1022.0S
PORT WASHINGTON  2140   55      40/  8/ 10 1022.0S
ATWATER BUOY     2100   50     350/  4/  4 1022.7R
MILWAUKEE LAKESH 2100   51      40/  4/  5   N/A
KENOSHA   LAKESH 2200   50     360/ 10/ 11 1021.0S
$$

TC  - TEMPERATURE IN CELSIUS
VSB - VISIBILITY IN STATUTE MILES
WCI - WIND CHILL INDEX
HX  - HEAT INDEX



USA.gov is the U.S. government's official web portal to all federal, state and local government web resources and services.